Flag Weather past 2 weeks in Peoria, Illinois, U.S.A.

Now
47 °F

Overcast.


Feels Like: 43 °F
Forecast: 34 / 52 °F
Wind: 7 mph from South

Location: Greater Peoria Regional Airport

Current Time: Oct 30, 2014 at 12:01:07 PM

Latest Report: Oct 30, 2014 at 10:54 AM


Visibility: 10 mi

Pressure: 30.13 "Hg

Humidity: 71%

Dew point: 38 °F

Location of PeoriaLocation

Historic Weather in Peoria — Graph

°F

Peoria temperature yesterday

Maximum temperature yesterday: 53 °F (at 3:54 PM)
Minimum temperature yesterday: 38 °F (at 10:54 PM)
Average temperature yesterday: 45 °F

Past Weeks' High & Low Weather Summary

 TemperatureHumidityPressure
High78 °F (Oct 25, 2:54 PM)93% (Oct 24, 8:54 AM)30.37 "Hg (Oct 24, 8:54 AM)
Low35 °F (Oct 30, 2:54 AM)23% (Oct 26, 3:54 PM)29.58 "Hg (Oct 27, 3:54 PM)
Average55 °F66%30.00 "Hg
* Reported Oct 15 10:54 AM — Oct 30 10:54 AM, Peoria, Weather by CustomWeather, © 2014

Note: Actual official high and low records may vary slightly from our data, if they occured in-between our weather recording intervals... More about our weather records

Advertising

Peoria weather history for previous 24 hours

 ConditionsComfort  
Time TempWeatherWind HumidityBarometerVisibility
10:54 AM
Oct 30
47 °FOvercast.7 mph71%30.13 "Hg10 mi
9:54 AM46 °FMostly cloudy.8 mph73%30.14 "Hg10 mi
8:54 AM41 °FSunny.6 mph82%30.15 "Hg9 mi
7:54 AM38 °FClear.No wind83%30.15 "Hg8 mi
6:54 AM37 °FClear.No wind82%30.16 "Hg10 mi
5:54 AM37 °FClear.No wind82%30.15 "Hg10 mi
4:54 AM36 °FClear.3 mph85%30.15 "Hg9 mi
3:54 AM35 °FClear.No wind85%30.16 "Hg10 mi
2:54 AM35 °FClear.No wind85%30.16 "Hg9 mi
1:54 AM36 °FClear.No wind82%30.17 "Hg10 mi
12:54 AM37 °FClear.No wind79%30.16 "Hg10 mi
11:54 PM
Oct 29
38 °FClear.No wind79%30.16 "Hg10 mi
10:54 PM38 °FClear.No wind79%30.17 "Hg10 mi
9:54 PM40 °FClear.No wind77%30.16 "Hg10 mi
8:54 PM40 °FClear.No wind77%30.17 "Hg10 mi
7:54 PM43 °FClear.No wind71%30.17 "Hg10 mi
6:54 PM46 °FSunny.No wind58%30.16 "Hg10 mi
5:54 PM50 °FSunny.3 mph50%30.15 "Hg10 mi
4:54 PM53 °FPassing clouds.7 mph45%30.14 "Hg10 mi
3:54 PM53 °FPartly sunny.6 mph45%30.14 "Hg10 mi
2:54 PM52 °FPartly sunny.13 mph47%30.14 "Hg10 mi
1:54 PM51 °FOvercast.12 mph50%30.15 "Hg10 mi
12:54 PM50 °FOvercast.9 mph50%30.16 "Hg10 mi
Weather by CustomWeather, © 2014

See weather overviewHow to use our weather pages